Location: Darmstadt
(49.8706°N, 8.6494°E)
Time: 07:32:38
(UTC+01:00)

CSL-04 Rocket - Pass Details

Date: 31 October 2020
Orbit: 805 x 861 km, 98.9° (Epoch: 03 December)

Event Time Altitude Azimuth Distance (km) Brightness Sun altitude
Exits shadow 19:00:41 - 155° (SSE) 3,176 6.4 -19.3°
Reaches altitude 10° 19:02:26 10° 154° (SSE) 2,486 5.9 -19.6°
Maximum altitude 19:07:56 72° 71° (ENE) 898 3.6 -20.4°
Drops below altitude 10° 19:13:25 10° 348° (NNW) 2,475 6.3 -21.3°
Sets 19:15:47 0° 347° (NNW) 3,407 7.1 -21.7°
